Regional Weather Roundup
Issued by NWS

Home | Current Version | Previous Version | Graphics & Text | Print | Product List | Glossary On
Versions: 1 2 3 4 5 6 7 8 9 10 11 12 13 14 15 16 17 18 19 20 21 22 23 24 25 26 27 28 29 30 31 32 33 34 35 36 37 38 39 40 41 42 43 44 45 46 47 48 49 50
000
ASUS45 KBOU 041410
RWRCO

WEATHER ROUNDUP FOR COLORADO
NATIONAL WEATHER SERVICE DENVER/BOULDER CO
800 AM MDT SAT JUL 04 2015

NOTE: "FAIR" INDICATES FEW OR NO CLOUDS BELOW 12000 FEET WITH NO
SIGNIFICANT WEATHER AND/OR OBSTRUCTIONS TO VISIBILITY.

COZ001>005-013-030-031-041500-
...NORTHWEST COLORADO...

CITY           SKY/WX    TMP DP  RH WIND       PRES   REMARKS
CRAIG          MOSUNNY   64  47  53 CALM      30.16R
HAYDEN         MOSUNNY   66  43  42 SE6       30.18R
MEEKER         LGT RAIN  62  48  60 CALM      30.19R
MOUNT WERNER   NOT AVBL
STEAMBOAT SPGS MOSUNNY   56  43  61 CALM      30.20R
WALDEN         SUNNY     61  43  51 SE6       30.27S
$$

COZ006>008-011-041500-
...WEST CENTRAL VALLEYS...

CITY           SKY/WX    TMP DP  RH WIND       PRES   REMARKS
GRAND JUNCTION PTSUNNY   77  51  40 SE13      30.09R
MONTROSE       CLOUDY    69  52  54 S18       30.20S
EAGLE          MOSUNNY   63  46  55 CALM      30.24S
RIFLE          MOSUNNY   66  53  63 CALM      30.16R
DELTA          CLOUDY    74  52  44 NE5       30.16S
NUCLA          CLOUDY    64  50  59 E7        30.22F
$$

COZ017>023-064>068-041500-
...SOUTHWEST COLORADO...

CITY           SKY/WX    TMP DP  RH WIND       PRES   REMARKS
DURANGO        MOSUNNY   59  46  62 CALM      30.25R
CORTEZ         SUNNY     65  51  60 CALM      30.19F
PAGOSA SPRINGS MOSUNNY   58  49  71 CALM      30.33S
TELLURIDE      CLOUDY    55  47  76 E5        30.44S
WOLF CREEK PAS NOT AVBL
$$

COZ009-010-012-014-032>034-037-058>063-041500-
...CENTRAL COLORADO...

CITY           SKY/WX    TMP DP  RH WIND       PRES   REMARKS
ASPEN          MOSUNNY   60  44  55 CALM      30.29S
BUENA VISTA    MOSUNNY   60  48  64 NW3       30.30S
COPPER MTN     SUNNY     55  37  50 W15       30.59S
BERTHOUD PASS  FAIR      46  36  66 W24G37    30.61R
COTTONWOOD PAS NOT AVBL
GUNNISON       PTSUNNY   55  46  71 CALM      30.38R
KREMMLING      SUNNY     59  41  51 CALM      30.28S
LEADVILLE      SUNNY     51  43  74 CALM      30.44R
MONARCH PASS   MOSUNNY   46  37  71 W28       30.69R
SALIDA         MOSUNNY   63  51  64 N9        30.34S
SUNLIGHT       MOSUNNY   55  45  67 CALM      30.54R
WILKERSON PASS SUNNY     54  36  50 NW13G32   30.54R
$$

COZ069>075-041500-
...SAN LUIS VALLEY/SANGRE DE CRISTO MOUNTAINS...

CITY           SKY/WX    TMP DP  RH WIND       PRES   REMARKS
ALAMOSA        PTSUNNY   57  50  77 CALM      30.31R
LA VETA PASS   MOSUNNY   52  46  82 MISG      30.44R
SAGUACHE       MOSUNNY   59  46  63 NW9       30.34R
$$

COZ035-036-038>040-041500-
...NORTHERN COLORADO FRONT RANGE...

CITY           SKY/WX    TMP DP  RH WIND       PRES   REMARKS
DENVER INTL AP MOSUNNY   69  54  58 W9        30.03R
DMNS CITY PARK   N/A     71  56  57 S3        30.03S
AURORA         MOSUNNY   68  53  58 W8        30.06R
FRONT RANGE AP MOSUNNY   72  55  56 SW6       30.05R
ERIE MUNI ARPT SUNNY     67  59  74 CALM      30.02S
BOULDER MUN AP SUNNY     68  57  68 CALM      30.03S
CENTENNIAL     MOSUNNY   71  51  49 W9        30.07R
BROOMFIELD     MOSUNNY   66  59  77 CALM      30.05S
FORT COLLINS   SUNNY     66  59  77 N5        30.02S
LONGMONT       SUNNY     73  58  60 CALM      30.02F
$$

COZ041-046-047-076>085-087-088-041500-
...PIKES PEAK/PALMER DIVIDE AND SOUTHERN FOOTHILLS...

CITY           SKY/WX    TMP DP  RH WIND       PRES   REMARKS
COLO. SPRINGS  PTSUNNY   67  54  63 N3        30.11F
A. F. ACADEMY  SUNNY     65  54  69 NW2       30.12F
ELLICOTT       SUNNY    N/A N/A N/A MISG      30.09S
FALCON         SUNNY     66  53  62 NW3       30.16S
FORT CARSON    SUNNY     62  54  74 N3        30.08S
LIMON          SUNNY     63  59  87 SE8       30.06F
MONUMENT HILL  NOT AVBL
TRINIDAD       LGT RAIN  68  56  65 W18G25    30.10S
$$

COZ042>045-048>051-090-091-041500-
...NORTHEAST COLORADO...

CITY           SKY/WX    TMP DP  RH WIND       PRES   REMARKS
GREELEY ARPT   SUNNY     64  61  88 CALM      30.00R
AKRON          PTSUNNY   66  61  84 S12       29.99F
BURLINGTON     MOSUNNY   66  61  84 S14       30.02S
WRAY           MOSUNNY   70  60  72 S13       29.99R
STERLING       PTSUNNY   70  61  73 S7          N/A
HOLYOKE        MOSUNNY   68  61  77 S10       29.97S
FORT MORGAN    PTSUNNY   68  57  69 S7        29.98S
$$

COZ086-089-092>099-041500-
...SOUTHEAST COLORADO...

CITY           SKY/WX    TMP DP  RH WIND       PRES   REMARKS
PUEBLO         SUNNY     70  57  63 VRB3      30.03R
LA JUNTA       SUNNY     70  56  61 SE6       30.01S
LAMAR          SUNNY     72  59  63 S5        29.98S
SPRINGFIELD      N/A     74  60  61 SW8       30.03S
$$


USA.gov is the U.S. government's official web portal to all federal, state and local government web resources and services.